Time,TemperatureF,DewpointF,PressureIn,WindDirection,WindDirectionDegrees,WindSpeedMPH,WindSpeedGustMPH,Humidity,HourlyPrecipIn,Conditions,Clouds,dailyrainin,SoftwareType,DateUTC
2013-11-17 00:01:00,62.8,59.2,30.19,SE,135,1.6,1.6,88,0.00,,,0.00,meteobridge,2013-11-17 06:01:00,
2013-11-17 00:08:00,62.6,59.0,30.19,East,90,1.6,3.1,88,0.00,,,0.00,meteobridge,2013-11-17 06:08:00,
2013-11-17 00:14:00,62.6,59.0,30.19,SE,135,4.5,6.9,88,0.00,,,0.00,meteobridge,2013-11-17 06:14:00,
2013-11-17 00:20:00,63.0,59.4,30.19,South,180,1.6,2.2,88,0.00,,,0.00,meteobridge,2013-11-17 06:20:00,
2013-11-17 00:26:00,62.2,58.6,30.19,East,90,2.2,2.2,88,0.00,,,0.00,meteobridge,2013-11-17 06:26:00,
2013-11-17 00:33:00,61.7,58.1,30.19,SE,135,1.6,1.6,88,0.00,,,0.00,meteobridge,2013-11-17 06:33:00,
2013-11-17 00:39:00,61.5,58.3,30.19,North,0,2.2,2.2,89,0.00,,,0.00,meteobridge,2013-11-17 06:39:00,
2013-11-17 00:46:00,61.5,58.3,30.19,SE,135,3.1,5.4,89,0.00,,,0.00,meteobridge,2013-11-17 06:46:00,
2013-11-17 00:52:00,61.7,58.5,30.18,SE,135,1.6,1.6,89,0.00,,,0.00,meteobridge,2013-11-17 06:52:00,
2013-11-17 00:58:00,61.5,58.3,30.18,East,90,2.2,3.1,89,0.00,,,0.00,meteobridge,2013-11-17 06:58:00,
2013-11-17 01:05:00,61.3,58.1,30.18,SE,135,3.8,3.8,89,0.00,,,0.00,meteobridge,2013-11-17 07:05:00,
2013-11-17 01:11:00,61.5,58.6,30.18,SE,135,3.1,3.8,90,0.00,,,0.00,meteobridge,2013-11-17 07:11:00,
2013-11-17 01:17:00,61.3,58.5,30.18,SE,135,3.1,3.8,90,0.00,,,0.00,meteobridge,2013-11-17 07:17:00,
2013-11-17 01:24:00,61.5,58.3,30.18,SE,135,0.7,2.2,89,0.00,,,0.00,meteobridge,2013-11-17 07:24:00,
2013-11-17 01:30:00,61.2,57.9,30.18,SE,135,2.2,3.8,89,0.00,,,0.00,meteobridge,2013-11-17 07:30:00,
2013-11-17 01:36:00,61.5,58.6,30.18,South,180,2.2,2.2,90,0.00,,,0.00,meteobridge,2013-11-17 07:36:00,
2013-11-17 01:43:00,61.5,58.6,30.17,East,90,2.2,2.2,90,0.00,,,0.00,meteobridge,2013-11-17 07:43:00,
2013-11-17 01:49:00,61.9,59.0,30.17,West,270,0.0,0.0,90,0.00,,,0.00,meteobridge,2013-11-17 07:49:00,
2013-11-17 01:56:00,61.9,59.0,30.17,SW,225,0.0,0.0,90,0.00,,,0.00,meteobridge,2013-11-17 07:56:00,
2013-11-17 02:02:00,61.7,58.8,30.16,East,90,0.7,0.7,90,0.00,,,0.00,meteobridge,2013-11-17 08:02:00,
2013-11-17 02:08:00,61.7,59.0,30.16,East,90,1.6,1.6,91,0.00,,,0.00,meteobridge,2013-11-17 08:08:00,
2013-11-17 02:15:00,61.3,58.6,30.16,South,180,1.6,2.2,91,0.00,,,0.00,meteobridge,2013-11-17 08:15:00,
2013-11-17 02:21:00,61.0,58.3,30.16,South,180,0.0,0.0,91,0.00,,,0.00,meteobridge,2013-11-17 08:21:00,
2013-11-17 02:27:00,61.2,58.5,30.16,East,90,0.0,0.0,91,0.00,,,0.00,meteobridge,2013-11-17 08:27:00,
2013-11-17 02:34:00,61.3,58.6,30.16,East,90,0.0,0.0,91,0.00,,,0.00,meteobridge,2013-11-17 08:34:00,
2013-11-17 02:40:00,61.3,58.6,30.16,East,90,0.0,0.0,91,0.00,,,0.00,meteobridge,2013-11-17 08:40:00,
2013-11-17 02:46:00,61.2,58.8,30.16,East,90,0.0,0.0,92,0.00,,,0.00,meteobridge,2013-11-17 08:46:00,
2013-11-17 02:53:00,61.3,59.0,30.16,East,90,0.0,0.0,92,0.00,,,0.00,meteobridge,2013-11-17 08:53:00,
2013-11-17 02:59:00,61.2,58.8,30.16,South,180,0.0,0.7,92,0.00,,,0.00,meteobridge,2013-11-17 08:59:00,
2013-11-17 03:05:00,61.7,59.4,30.16,East,90,0.0,0.0,92,0.00,,,0.00,meteobridge,2013-11-17 09:05:00,
2013-11-17 03:12:00,61.7,59.0,30.16,SE,135,0.0,0.0,91,0.00,,,0.00,meteobridge,2013-11-17 09:12:00,
2013-11-17 03:18:00,61.7,59.0,30.16,South,180,0.0,0.0,91,0.00,,,0.00,meteobridge,2013-11-17 09:18:00,
2013-11-17 03:24:00,61.7,59.0,30.16,NW,315,3.1,3.1,91,0.00,,,0.00,meteobridge,2013-11-17 09:24:00,
2013-11-17 03:31:00,61.7,59.0,30.17,East,90,2.2,2.2,91,0.00,,,0.00,meteobridge,2013-11-17 09:31:00,
2013-11-17 03:37:00,61.3,59.0,30.17,SE,135,0.0,0.0,92,0.00,,,0.00,meteobridge,2013-11-17 09:37:00,
2013-11-17 03:43:00,61.5,59.2,30.17,East,90,0.7,2.2,92,0.00,,,0.00,meteobridge,2013-11-17 09:43:00,
2013-11-17 03:50:00,61.5,59.2,30.18,East,90,0.0,0.0,92,0.00,,,0.00,meteobridge,2013-11-17 09:50:00,
2013-11-17 03:56:00,61.3,59.0,30.18,SE,135,3.1,5.4,92,0.00,,,0.00,meteobridge,2013-11-17 09:56:00,
2013-11-17 04:02:00,61.5,59.2,30.18,SE,135,2.2,2.2,92,0.00,,,0.00,meteobridge,2013-11-17 10:02:00,
2013-11-17 04:09:00,61.5,59.2,30.18,East,90,0.0,0.0,92,0.00,,,0.00,meteobridge,2013-11-17 10:09:00,
2013-11-17 04:15:00,61.3,59.0,30.18,South,180,3.1,3.1,92,0.00,,,0.00,meteobridge,2013-11-17 10:15:00,
2013-11-17 04:21:00,60.8,58.5,30.18,South,180,0.0,0.0,92,0.00,,,0.00,meteobridge,2013-11-17 10:21:00,
2013-11-17 04:28:00,61.2,58.8,30.18,East,90,4.5,4.5,92,0.00,,,0.00,meteobridge,2013-11-17 10:28:00,
2013-11-17 04:34:00,61.0,58.3,30.18,SW,225,3.8,3.8,91,0.00,,,0.00,meteobridge,2013-11-17 10:34:00,
2013-11-17 04:41:00,61.0,58.3,30.18,South,180,1.6,2.2,91,0.00,,,0.00,meteobridge,2013-11-17 10:41:00,
2013-11-17 04:47:00,60.4,58.1,30.18,East,90,0.0,0.0,92,0.00,,,0.00,meteobridge,2013-11-17 10:47:00,
2013-11-17 04:53:00,60.4,58.5,30.18,SE,135,2.2,2.2,93,0.00,,,0.00,meteobridge,2013-11-17 10:53:00,
2013-11-17 05:00:00,60.3,57.9,30.19,South,180,0.0,1.6,92,0.00,,,0.00,meteobridge,2013-11-17 11:00:00,
2013-11-17 05:06:00,60.1,57.7,30.19,SE,135,0.7,0.7,92,0.00,,,0.00,meteobridge,2013-11-17 11:06:00,
2013-11-17 05:12:00,60.1,57.7,30.19,SE,135,1.6,3.1,92,0.00,,,0.00,meteobridge,2013-11-17 11:12:00,
2013-11-17 05:19:00,60.3,57.9,30.19,East,90,4.5,4.5,92,0.00,,,0.00,meteobridge,2013-11-17 11:19:00,
2013-11-17 05:25:00,60.6,57.9,30.19,NE,45,3.1,5.4,91,0.00,,,0.00,meteobridge,2013-11-17 11:25:00,
2013-11-17 05:31:00,60.6,57.9,30.19,East,90,1.6,2.2,91,0.00,,,0.00,meteobridge,2013-11-17 11:31:00,
2013-11-17 05:38:00,60.1,57.4,30.20,East,90,3.1,3.1,91,0.00,,,0.00,meteobridge,2013-11-17 11:38:00,
2013-11-17 05:44:00,60.3,57.6,30.20,SE,135,2.2,3.1,91,0.00,,,0.00,meteobridge,2013-11-17 11:44:00,
2013-11-17 05:50:00,60.1,57.4,30.20,SE,135,3.8,5.4,91,0.00,,,0.00,meteobridge,2013-11-17 11:50:00,
2013-11-17 05:57:00,60.1,56.8,30.20,South,180,6.9,6.9,89,0.00,,,0.00,meteobridge,2013-11-17 11:57:00,
2013-11-17 06:03:00,60.4,57.2,30.20,SE,135,5.4,6.0,89,0.00,,,0.00,meteobridge,2013-11-17 12:03:00,
2013-11-17 06:09:00,61.5,57.4,30.20,SE,135,4.5,4.5,86,0.00,,,0.00,meteobridge,2013-11-17 12:09:00,
2013-11-17 06:16:00,63.0,57.7,30.21,SE,135,6.9,6.9,83,0.00,,,0.00,meteobridge,2013-11-17 12:16:00,
2013-11-17 06:22:00,62.8,56.8,30.21,East,90,3.8,3.8,81,0.00,,,0.00,meteobridge,2013-11-17 12:22:00,
2013-11-17 06:28:00,65.8,58.8,30.21,SE,135,4.5,4.5,78,0.00,,,0.00,meteobridge,2013-11-17 12:28:00,
2013-11-17 06:35:00,65.1,57.4,30.21,SE,135,3.1,3.8,76,0.00,,,0.00,meteobridge,2013-11-17 12:35:00,
2013-11-17 06:41:00,66.0,57.9,30.21,SE,135,3.1,3.1,75,0.00,,,0.00,meteobridge,2013-11-17 12:41:00,
2013-11-17 06:47:00,67.3,58.3,30.22,East,90,0.0,0.0,73,0.00,,,0.00,meteobridge,2013-11-17 12:47:00,
2013-11-17 06:56:00,66.9,57.6,30.21,East,90,0.0,0.0,72,0.00,,,0.00,meteobridge,2013-11-17 12:56:00,
2013-11-17 07:02:00,72.0,61.2,30.22,South,180,0.0,0.0,69,0.00,,,0.00,meteobridge,2013-11-17 13:02:00,
2013-11-17 07:09:00,65.5,56.7,30.22,NW,315,0.0,1.6,73,0.00,,,0.00,meteobridge,2013-11-17 13:09:00,
2013-11-17 07:15:00,65.1,58.1,30.22,South,180,3.1,3.1,78,0.00,,,0.00,meteobridge,2013-11-17 13:15:00,
2013-11-17 07:21:00,64.9,58.3,30.22,North,0,0.0,0.0,79,0.00,,,0.00,meteobridge,2013-11-17 13:21:00,
2013-11-17 07:28:00,64.8,58.1,30.22,North,0,2.2,2.2,79,0.00,,,0.00,meteobridge,2013-11-17 13:28:00,
2013-11-17 07:34:00,66.9,60.3,30.23,North,0,0.0,2.2,79,0.00,,,0.00,meteobridge,2013-11-17 13:34:00,
2013-11-17 07:40:00,66.2,58.8,30.23,North,0,3.1,3.8,77,0.00,,,0.00,meteobridge,2013-11-17 13:40:00,
2013-11-17 07:47:00,66.4,59.0,30.23,West,270,0.0,1.6,77,0.00,,,0.00,meteobridge,2013-11-17 13:47:00,
2013-11-17 07:53:00,66.7,59.4,30.23,NW,315,0.0,0.0,77,0.00,,,0.00,meteobridge,2013-11-17 13:53:00,
2013-11-17 07:59:00,67.6,59.7,30.23,West,270,0.0,0.0,76,0.00,,,0.00,meteobridge,2013-11-17 13:59:00,
2013-11-17 08:06:00,66.9,58.8,30.23,North,0,1.6,3.1,75,0.00,,,0.00,meteobridge,2013-11-17 14:06:00,
2013-11-17 08:12:00,67.3,59.0,30.24,NW,315,0.0,2.2,75,0.00,,,0.00,meteobridge,2013-11-17 14:12:00,
2013-11-17 08:18:00,67.5,59.2,30.24,NW,315,2.2,2.2,75,0.00,,,0.00,meteobridge,2013-11-17 14:18:00,
2013-11-17 08:25:00,67.5,58.8,30.24,North,0,3.1,3.8,74,0.00,,,0.00,meteobridge,2013-11-17 14:25:00,
2013-11-17 08:33:00,69.1,60.1,30.24,East,90,0.0,2.2,73,0.00,,,0.00,meteobridge,2013-11-17 14:33:00,
2013-11-17 08:39:00,69.1,59.4,30.24,North,0,3.8,3.8,71,0.00,,,0.00,meteobridge,2013-11-17 14:39:00,
2013-11-17 08:46:00,71.1,61.2,30.25,NW,315,3.1,3.1,71,0.00,,,0.00,meteobridge,2013-11-17 14:46:00,
2013-11-17 08:52:00,70.7,59.5,30.24,North,0,3.8,3.8,68,0.00,,,0.00,meteobridge,2013-11-17 14:52:00,
2013-11-17 08:58:00,70.7,59.2,30.24,North,0,2.2,5.4,67,0.00,,,0.00,meteobridge,2013-11-17 14:58:00,
2013-11-17 09:05:00,71.6,59.2,30.24,North,0,3.8,3.8,65,0.00,,,0.00,meteobridge,2013-11-17 15:05:00,
2013-11-17 09:11:00,73.8,60.8,30.24,NE,45,3.1,3.8,64,0.00,,,0.00,meteobridge,2013-11-17 15:11:00,
2013-11-17 09:18:00,72.9,58.6,30.24,East,90,5.4,6.0,61,0.00,,,0.00,meteobridge,2013-11-17 15:18:00,
2013-11-17 09:24:00,75.4,60.1,30.25,SW,225,4.5,4.5,59,0.00,,,0.00,meteobridge,2013-11-17 15:24:00,
2013-11-17 09:30:00,75.6,57.7,30.24,NW,315,10.7,10.7,54,0.00,,,0.00,meteobridge,2013-11-17 15:30:00,
2013-11-17 09:37:00,75.9,58.6,30.24,West,270,5.4,13.0,55,0.00,,,0.00,meteobridge,2013-11-17 15:37:00,
2013-11-17 09:43:00,75.0,58.8,30.24,West,270,9.8,12.1,57,0.00,,,0.00,meteobridge,2013-11-17 15:43:00,
2013-11-17 09:49:00,75.9,59.2,30.24,North,0,2.2,6.9,56,0.00,,,0.00,meteobridge,2013-11-17 15:49:00,
2013-11-17 09:56:00,75.9,59.2,30.24,NE,45,9.8,9.8,56,0.00,,,0.00,meteobridge,2013-11-17 15:56:00,
2013-11-17 10:02:00,77.7,61.7,30.24,SW,225,0.7,2.2,58,0.00,,,0.00,meteobridge,2013-11-17 16:02:00,
2013-11-17 10:08:00,71.8,58.1,30.24,West,270,4.5,9.8,62,0.00,,,0.00,meteobridge,2013-11-17 16:08:00,
2013-11-17 10:15:00,72.0,58.3,30.24,North,0,3.1,4.5,62,0.00,,,0.00,meteobridge,2013-11-17 16:15:00,
2013-11-17 10:21:00,72.7,58.8,30.24,North,0,0.0,0.0,62,0.00,,,0.00,meteobridge,2013-11-17 16:21:00,
2013-11-17 10:28:00,72.5,59.2,30.24,North,0,3.1,6.0,63,0.00,,,0.00,meteobridge,2013-11-17 16:28:00,
2013-11-17 10:34:00,73.4,61.0,30.23,West,270,1.6,3.8,65,0.00,,,0.00,meteobridge,2013-11-17 16:34:00,
2013-11-17 10:40:00,72.5,59.2,30.23,NE,45,3.8,5.4,63,0.00,,,0.00,meteobridge,2013-11-17 16:40:00,
2013-11-17 10:47:00,70.9,59.4,30.23,North,0,7.6,9.2,67,0.00,,,0.00,meteobridge,2013-11-17 16:47:00,
2013-11-17 10:53:00,73.0,60.6,30.22,NW,315,9.2,9.8,65,0.00,,,0.00,meteobridge,2013-11-17 16:53:00,
2013-11-17 10:59:00,78.1,61.5,30.22,NW,315,8.3,8.3,57,0.00,,,0.00,meteobridge,2013-11-17 16:59:00,
2013-11-17 11:06:00,78.6,57.9,30.22,South,180,9.2,10.7,49,0.00,,,0.00,meteobridge,2013-11-17 17:06:00,
2013-11-17 11:12:00,81.1,57.7,30.22,NW,315,7.6,7.6,45,0.00,,,0.00,meteobridge,2013-11-17 17:12:00,
2013-11-17 11:18:00,76.8,57.9,30.22,West,270,9.8,12.1,52,0.00,,,0.00,meteobridge,2013-11-17 17:18:00,
2013-11-17 11:25:00,78.8,60.3,30.21,North,0,15.9,15.9,53,0.00,,,0.00,meteobridge,2013-11-17 17:25:00,
2013-11-17 11:31:00,77.9,60.4,30.21,SW,225,6.0,10.7,55,0.00,,,0.00,meteobridge,2013-11-17 17:31:00,
2013-11-17 11:37:00,76.8,59.0,30.21,North,0,14.5,14.5,54,0.00,,,0.00,meteobridge,2013-11-17 17:37:00,
2013-11-17 11:44:00,79.0,59.9,30.21,West,270,6.9,14.5,52,0.00,,,0.00,meteobridge,2013-11-17 17:44:00,
2013-11-17 11:50:00,77.0,57.0,30.21,West,270,8.3,13.6,50,0.00,,,0.00,meteobridge,2013-11-17 17:50:00,
2013-11-17 11:56:00,78.8,58.1,30.20,NW,315,7.6,7.6,49,0.00,,,0.00,meteobridge,2013-11-17 17:56:00,
2013-11-17 12:03:00,79.0,61.0,30.20,NW,315,11.4,11.4,54,0.00,,,0.00,meteobridge,2013-11-17 18:03:00,
2013-11-17 12:09:00,76.3,61.9,30.20,North,0,9.8,9.8,61,0.00,,,0.00,meteobridge,2013-11-17 18:09:00,
2013-11-17 12:15:00,79.2,60.6,30.20,North,0,7.6,8.3,53,0.00,,,0.00,meteobridge,2013-11-17 18:15:00,
2013-11-17 12:22:00,75.4,59.5,30.19,SE,135,8.3,9.8,58,0.00,,,0.00,meteobridge,2013-11-17 18:22:00,
2013-11-17 12:28:00,76.1,60.8,30.19,SW,225,6.9,12.1,59,0.00,,,0.00,meteobridge,2013-11-17 18:28:00,
2013-11-17 12:34:00,77.9,61.0,30.18,NE,45,6.0,6.9,56,0.00,,,0.00,meteobridge,2013-11-17 18:34:00,
2013-11-17 12:41:00,79.3,60.8,30.19,SE,135,4.5,5.4,53,0.00,,,0.00,meteobridge,2013-11-17 18:41:00,
2013-11-17 12:47:00,75.4,59.5,30.18,SE,135,5.4,8.3,58,0.00,,,0.00,meteobridge,2013-11-17 18:47:00,
2013-11-17 12:53:00,77.4,60.4,30.18,North,0,6.9,8.3,56,0.00,,,0.00,meteobridge,2013-11-17 18:53:00,
2013-11-17 13:02:00,78.1,60.6,30.18,SE,135,4.5,9.8,55,0.00,,,0.00,meteobridge,2013-11-17 19:02:00,
2013-11-17 13:08:00,79.2,60.6,30.18,SE,135,6.0,6.0,53,0.00,,,0.00,meteobridge,2013-11-17 19:08:00,
2013-11-17 13:15:00,76.6,60.8,30.18,East,90,12.1,12.1,58,0.00,,,0.00,meteobridge,2013-11-17 19:15:00,
2013-11-17 13:21:00,77.2,61.3,30.17,SW,225,6.0,9.2,58,0.00,,,0.00,meteobridge,2013-11-17 19:21:00,
2013-11-17 13:27:00,76.6,59.2,30.17,East,90,5.4,6.9,55,0.00,,,0.00,meteobridge,2013-11-17 19:27:00,
2013-11-17 13:34:00,79.0,59.4,30.17,NE,45,6.0,6.0,51,0.00,,,0.00,meteobridge,2013-11-17 19:34:00,
2013-11-17 13:40:00,75.0,60.3,30.16,East,90,9.8,12.1,60,0.00,,,0.00,meteobridge,2013-11-17 19:40:00,
2013-11-17 13:46:00,77.4,59.4,30.17,North,0,9.2,9.2,54,0.00,,,0.00,meteobridge,2013-11-17 19:46:00,
2013-11-17 13:53:00,78.3,61.3,30.17,West,270,9.2,9.8,56,0.00,,,0.00,meteobridge,2013-11-17 19:53:00,
2013-11-17 13:59:00,78.1,54.3,30.16,SW,225,10.7,15.9,44,0.00,,,0.00,meteobridge,2013-11-17 19:59:00,
2013-11-17 14:07:00,81.9,53.8,30.17,West,270,3.1,3.1,38,0.00,,,0.00,meteobridge,2013-11-17 20:07:00,
2013-11-17 14:14:00,79.7,54.0,30.16,West,270,6.9,9.8,41,0.00,,,0.00,meteobridge,2013-11-17 20:14:00,
2013-11-17 14:20:00,79.3,57.4,30.16,North,0,16.8,18.3,47,0.00,,,0.00,meteobridge,2013-11-17 20:20:00,
2013-11-17 14:26:00,77.9,56.7,30.15,East,90,15.2,16.8,48,0.00,,,0.00,meteobridge,2013-11-17 20:26:00,
2013-11-17 14:33:00,77.9,59.4,30.16,South,180,3.8,7.6,53,0.00,,,0.00,meteobridge,2013-11-17 20:33:00,
2013-11-17 14:41:00,80.1,62.4,30.16,SW,225,4.5,7.6,55,0.00,,,0.00,meteobridge,2013-11-17 20:41:00,
2013-11-17 14:48:00,79.7,58.8,30.16,West,270,13.0,13.0,49,0.00,,,0.00,meteobridge,2013-11-17 20:48:00,
2013-11-17 14:54:00,75.9,58.1,30.15,North,0,9.2,11.4,54,0.00,,,0.00,meteobridge,2013-11-17 20:54:00,
2013-11-17 15:02:00,79.9,61.7,30.16,West,270,3.8,6.9,54,0.00,,,0.00,meteobridge,2013-11-17 21:02:00,
2013-11-17 15:11:00,76.3,59.9,30.17,NW,315,10.7,10.7,57,0.00,,,0.00,meteobridge,2013-11-17 21:11:00,
2013-11-17 15:17:00,73.4,59.5,30.16,West,270,6.9,9.8,62,0.00,,,0.00,meteobridge,2013-11-17 21:17:00,
2013-11-17 15:24:00,73.0,60.1,30.16,North,0,6.0,9.8,64,0.00,,,0.00,meteobridge,2013-11-17 21:24:00,
2013-11-17 15:30:00,72.1,61.0,30.17,North,0,7.6,7.6,68,0.00,,,0.00,meteobridge,2013-11-17 21:30:00,
2013-11-17 15:36:00,71.6,61.3,30.17,North,0,2.2,5.4,70,0.00,,,0.00,meteobridge,2013-11-17 21:36:00,
2013-11-17 15:43:00,71.1,61.5,30.17,North,0,6.0,6.0,72,0.00,,,0.00,meteobridge,2013-11-17 21:43:00,
2013-11-17 15:49:00,70.9,61.9,30.17,North,0,7.6,7.6,73,0.00,,,0.00,meteobridge,2013-11-17 21:49:00,
2013-11-17 15:55:00,70.2,61.9,30.17,North,0,7.6,7.6,75,0.00,,,0.00,meteobridge,2013-11-17 21:55:00,
2013-11-17 16:02:00,70.3,62.1,30.17,North,0,5.4,7.6,75,0.00,,,0.00,meteobridge,2013-11-17 22:02:00,
2013-11-17 16:08:00,69.4,62.6,30.17,North,0,8.3,8.3,79,0.00,,,0.00,meteobridge,2013-11-17 22:08:00,
2013-11-17 16:14:00,69.3,62.8,30.18,NE,45,7.6,7.6,80,0.00,,,0.00,meteobridge,2013-11-17 22:14:00,
2013-11-17 16:21:00,68.9,62.8,30.19,North,0,5.4,6.9,81,0.00,,,0.00,meteobridge,2013-11-17 22:21:00,
2013-11-17 16:27:00,68.5,62.4,30.19,North,0,2.2,5.4,81,0.00,,,0.00,meteobridge,2013-11-17 22:27:00,
2013-11-17 16:33:00,68.7,62.2,30.19,NE,45,0.0,0.0,80,0.00,,,0.00,meteobridge,2013-11-17 22:33:00,
2013-11-17 16:40:00,68.5,62.1,30.19,NW,315,3.8,4.5,80,0.00,,,0.00,meteobridge,2013-11-17 22:40:00,
2013-11-17 16:46:00,68.0,62.2,30.20,NW,315,1.6,1.6,82,0.00,,,0.00,meteobridge,2013-11-17 22:46:00,
2013-11-17 16:52:00,67.3,62.2,30.19,NW,315,3.8,4.5,84,0.00,,,0.00,meteobridge,2013-11-17 22:52:00,
2013-11-17 16:59:00,67.3,62.2,30.19,NW,315,0.0,2.2,84,0.00,,,0.00,meteobridge,2013-11-17 22:59:00,
2013-11-17 17:05:00,66.9,62.2,30.19,North,0,3.1,3.1,85,0.00,,,0.00,meteobridge,2013-11-17 23:05:00,
2013-11-17 17:11:00,67.1,62.4,30.19,West,270,3.1,3.1,85,0.00,,,0.00,meteobridge,2013-11-17 23:11:00,
2013-11-17 17:18:00,66.9,62.6,30.19,West,270,3.1,3.1,86,0.00,,,0.00,meteobridge,2013-11-17 23:18:00,
2013-11-17 17:24:00,66.6,62.2,30.20,NW,315,2.2,2.2,86,0.00,,,0.00,meteobridge,2013-11-17 23:24:00,
2013-11-17 17:30:00,66.6,62.2,30.20,NW,315,0.0,3.1,86,0.00,,,0.00,meteobridge,2013-11-17 23:30:00,
2013-11-17 17:37:00,66.6,62.6,30.20,NW,315,1.6,1.6,87,0.00,,,0.00,meteobridge,2013-11-17 23:37:00,
2013-11-17 17:43:00,66.6,62.2,30.21,West,270,0.7,3.1,86,0.00,,,0.00,meteobridge,2013-11-17 23:43:00,
2013-11-17 17:49:00,66.6,61.9,30.21,West,270,2.2,4.5,85,0.00,,,0.00,meteobridge,2013-11-17 23:49:00,
2013-11-17 17:56:00,66.4,61.7,30.21,South,180,4.5,6.0,85,0.00,,,0.00,meteobridge,2013-11-17 23:56:00,
2013-11-17 18:02:00,66.6,61.9,30.22,West,270,1.6,1.6,85,0.00,,,0.00,meteobridge,2013-11-18 00:02:00,
2013-11-17 18:09:00,66.4,61.7,30.22,NW,315,0.0,0.0,85,0.00,,,0.00,meteobridge,2013-11-18 00:09:00,
2013-11-17 18:15:00,66.4,61.7,30.22,East,90,0.0,0.0,85,0.00,,,0.00,meteobridge,2013-11-18 00:15:00,
2013-11-17 18:21:00,66.6,61.9,30.22,North,0,0.0,0.0,85,0.00,,,0.00,meteobridge,2013-11-18 00:21:00,
2013-11-17 18:28:00,65.8,61.5,30.22,North,0,1.6,2.2,86,0.00,,,0.00,meteobridge,2013-11-18 00:28:00,
2013-11-17 18:34:00,65.8,61.9,30.22,North,0,0.0,0.0,87,0.00,,,0.00,meteobridge,2013-11-18 00:34:00,
2013-11-17 18:40:00,65.7,61.7,30.22,West,270,0.0,0.0,87,0.00,,,0.00,meteobridge,2013-11-18 00:40:00,
2013-11-17 18:47:00,65.7,61.7,30.22,West,270,0.0,0.0,87,0.00,,,0.00,meteobridge,2013-11-18 00:47:00,
2013-11-17 18:53:00,65.7,61.7,30.23,East,90,0.0,0.0,87,0.00,,,0.00,meteobridge,2013-11-18 00:53:00,
2013-11-17 18:59:00,65.1,61.5,30.23,East,90,0.0,0.0,88,0.00,,,0.00,meteobridge,2013-11-18 00:59:00,
2013-11-17 19:06:00,65.3,61.7,30.24,North,0,2.2,2.2,88,0.00,,,0.00,meteobridge,2013-11-18 01:06:00,
2013-11-17 19:14:00,64.9,61.7,30.24,North,0,0.0,2.2,89,0.00,,,0.00,meteobridge,2013-11-18 01:14:00,
2013-11-17 19:20:00,64.2,60.6,30.24,South,180,3.1,3.1,88,0.00,,,0.00,meteobridge,2013-11-18 01:20:00,
2013-11-17 19:27:00,64.2,61.0,30.24,North,0,0.0,1.6,89,0.00,,,0.00,meteobridge,2013-11-18 01:27:00,
2013-11-17 19:33:00,64.2,61.0,30.24,West,270,1.6,1.6,89,0.00,,,0.00,meteobridge,2013-11-18 01:33:00,
2013-11-17 19:39:00,64.0,60.8,30.24,South,180,0.0,2.2,89,0.00,,,0.00,meteobridge,2013-11-18 01:39:00,
2013-11-17 19:46:00,64.0,60.8,30.24,North,0,0.0,0.0,89,0.00,,,0.00,meteobridge,2013-11-18 01:46:00,
2013-11-17 19:52:00,63.7,60.4,30.24,East,90,0.0,0.0,89,0.00,,,0.00,meteobridge,2013-11-18 01:52:00,
2013-11-17 19:58:00,63.3,60.1,30.24,East,90,0.0,0.0,89,0.00,,,0.00,meteobridge,2013-11-18 01:58:00,
2013-11-17 20:05:00,62.8,59.7,30.24,East,90,0.0,0.0,90,0.00,,,0.00,meteobridge,2013-11-18 02:05:00,
2013-11-17 20:11:00,63.0,60.3,30.24,East,90,0.0,0.0,91,0.00,,,0.00,meteobridge,2013-11-18 02:11:00,
2013-11-17 20:18:00,62.8,60.1,30.24,SE,135,1.6,2.2,91,0.00,,,0.00,meteobridge,2013-11-18 02:18:00,
2013-11-17 20:24:00,62.8,60.1,30.24,South,180,2.2,2.2,91,0.00,,,0.00,meteobridge,2013-11-18 02:24:00,
2013-11-17 20:30:00,62.6,59.9,30.24,East,90,2.2,2.2,91,0.00,,,0.00,meteobridge,2013-11-18 02:30:00,
2013-11-17 20:37:00,62.6,59.9,30.25,South,180,0.0,0.0,91,0.00,,,0.00,meteobridge,2013-11-18 02:37:00,
2013-11-17 20:43:00,62.6,59.5,30.25,East,90,0.0,0.0,90,0.00,,,0.00,meteobridge,2013-11-18 02:43:00,
2013-11-17 20:49:00,62.4,59.7,30.25,SE,135,3.1,3.1,91,0.00,,,0.00,meteobridge,2013-11-18 02:49:00,
2013-11-17 20:56:00,62.6,58.6,30.25,SE,135,3.8,4.5,87,0.00,,,0.00,meteobridge,2013-11-18 02:56:00,
2013-11-17 21:02:00,62.2,57.9,30.24,SE,135,2.2,3.1,86,0.00,,,0.00,meteobridge,2013-11-18 03:02:00,
2013-11-17 21:08:00,61.9,57.4,30.25,South,180,3.1,4.5,85,0.00,,,0.00,meteobridge,2013-11-18 03:08:00,
2013-11-17 21:15:00,61.5,57.0,30.24,SE,135,5.4,5.4,85,0.00,,,0.00,meteobridge,2013-11-18 03:15:00,
2013-11-17 21:21:00,61.5,57.0,30.24,SE,135,4.5,7.6,85,0.00,,,0.00,meteobridge,2013-11-18 03:21:00,
2013-11-17 21:27:00,61.2,57.0,30.24,SE,135,3.1,3.8,86,0.00,,,0.00,meteobridge,2013-11-18 03:27:00,
2013-11-17 21:34:00,61.5,57.4,30.24,SE,135,4.5,4.5,86,0.00,,,0.00,meteobridge,2013-11-18 03:34:00,
2013-11-17 21:40:00,61.0,56.8,30.24,South,180,2.2,2.2,86,0.00,,,0.00,meteobridge,2013-11-18 03:40:00,
2013-11-17 21:46:00,61.0,57.0,30.24,South,180,3.8,3.8,87,0.00,,,0.00,meteobridge,2013-11-18 03:46:00,
2013-11-17 21:53:00,61.0,57.0,30.24,South,180,3.8,3.8,87,0.00,,,0.00,meteobridge,2013-11-18 03:53:00,
2013-11-17 22:01:00,61.0,57.0,30.25,East,90,2.2,2.2,87,0.00,,,0.00,meteobridge,2013-11-18 04:01:00,
2013-11-17 22:07:00,61.2,57.2,30.25,South,180,0.0,2.2,87,0.00,,,0.00,meteobridge,2013-11-18 04:07:00,
2013-11-17 22:14:00,61.0,57.0,30.25,SE,135,3.8,3.8,87,0.00,,,0.00,meteobridge,2013-11-18 04:14:00,
2013-11-17 22:20:00,61.3,57.4,30.25,East,90,3.1,3.1,87,0.00,,,0.00,meteobridge,2013-11-18 04:20:00,
2013-11-17 22:26:00,60.4,56.8,30.25,SE,135,3.1,3.1,88,0.00,,,0.00,meteobridge,2013-11-18 04:26:00,
2013-11-17 22:33:00,60.6,57.0,30.25,SE,135,3.1,3.1,88,0.00,,,0.00,meteobridge,2013-11-18 04:33:00,
2013-11-17 22:39:00,60.3,56.3,30.26,SE,135,3.1,3.1,87,0.00,,,0.00,meteobridge,2013-11-18 04:39:00,
2013-11-17 22:46:00,60.4,56.5,30.26,SE,135,2.2,2.2,87,0.00,,,0.00,meteobridge,2013-11-18 04:46:00,
2013-11-17 22:52:00,60.4,56.8,30.25,SE,135,2.2,3.1,88,0.00,,,0.00,meteobridge,2013-11-18 04:52:00,
2013-11-17 22:58:00,61.0,57.0,30.25,South,180,4.5,5.4,87,0.00,,,0.00,meteobridge,2013-11-18 04:58:00,
2013-11-17 23:02:00,61.0,56.8,30.25,South,180,3.8,4.5,86,0.00,,,0.00,meteobridge,2013-11-18 05:02:00,
2013-11-17 23:05:00,61.0,56.8,30.25,SE,135,3.8,3.8,86,0.00,,,0.00,meteobridge,2013-11-18 05:05:00,
2013-11-17 23:09:00,60.8,56.3,30.25,South,180,5.4,6.0,85,0.00,,,0.00,meteobridge,2013-11-18 05:09:00,
2013-11-17 23:15:00,60.6,56.1,30.24,SE,135,4.5,6.9,85,0.00,,,0.00,meteobridge,2013-11-18 05:15:00,
2013-11-17 23:17:00,60.4,55.9,30.25,SE,135,7.6,7.6,85,0.00,,,0.00,meteobridge,2013-11-18 05:17:00,
2013-11-17 23:21:00,60.3,55.8,30.24,SE,135,5.4,5.4,85,0.00,,,0.00,meteobridge,2013-11-18 05:21:00,
2013-11-17 23:28:00,60.3,55.8,30.24,East,90,3.8,6.0,85,0.00,,,0.00,meteobridge,2013-11-18 05:28:00,
2013-11-17 23:32:00,60.3,55.8,30.24,East,90,6.0,6.0,85,0.00,,,0.00,meteobridge,2013-11-18 05:32:00,
2013-11-17 23:38:00,60.1,55.9,30.23,SE,135,3.8,6.0,86,0.00,,,0.00,meteobridge,2013-11-18 05:38:00,
2013-11-17 23:45:00,59.7,55.6,30.23,SE,135,6.0,8.3,86,0.00,,,0.00,meteobridge,2013-11-18 05:45:00,
2013-11-17 23:51:00,59.7,55.6,30.23,SE,135,4.5,4.5,86,0.00,,,0.00,meteobridge,2013-11-18 05:51:00,
2013-11-17 23:57:00,59.9,55.8,30.23,SE,135,5.4,6.9,86,0.00,,,0.00,meteobridge,2013-11-18 05:57:00,